Weather History for Holdrege, NE

Change the Weather History Date:

Friday, December 6, 2013

  Actual Average Record
Temperature  
Mean Temperature 5 °F -  
Max Temperature 14 °F 40 °F 69 °F (1989)
Min Temperature -4 °F 18 °F -12 °F (1972)
Degree Days  
Heating Degree Days 60    
Moisture  
Dew Point -10 °F    
Average Humidity 55    
Maximum Humidity 73    
Minimum Humidity 34    
Precipitation  
Precipitation 0.00 in - - ()
Sea Level Pressure  
Sea Level Pressure 30.46 in    
Wind  
Wind Speed 8 mph (North)    
Max Wind Speed 13 mph    
Max Gust Speed 18 mph    
Visibility 10 miles    
Events      
Averages and records for this station are not official NWS values.
T = Trace of Precipitation, MM = Missing Value Source: NWS Daily Summary

Daily Weather History Graph

Daily Weather History Graph

Search for Another Location

Airport:

Trip Planner

Search our weather history database for the weather conditions in past years. The results will help you decide how hot, cold, wet, or windy it might be!

Date:

Astronomy

Dec. 06, 2013 Rise Set
Actual Time 7:46 AM CST 5:10 PM CST
Civil Twilight 7:15 AM CST 5:41 PM CST
Nautical Twilight 6:41 AM CST 6:15 PM CST
Astronomical Twilight 6:08 AM CST 6:48 PM CST
Moon 10:52 AM CST (12/6) 9:44 PM CST (12/6)
Length of Visible Light 10h 25m
Length of Day
9h 24m
Waxing Crescent, 19% of the Moon is Illuminated
Dec 6
Waxing Crescent
Dec 9
First Quarter
Dec 17
Full
Dec 25
Last Quarter
Jan 1
New

Hourly Weather History & Observations

Time (CST) Temp. Windchill Dew Point Humidity Pressure Visibility Wind Dir Wind Speed Gust Speed Precip Events Conditions
12:15 AM 7.5 °F -3.9 °F -8.0 °F 49% 30.37 in 10.0 mi North 6.9 mph - N/A   Overcast
12:35 AM 7.2 °F -5.4 °F -7.8 °F 51% 30.37 in 10.0 mi NNE 8.1 mph - N/A   Overcast
12:55 AM 6.8 °F -6.9 °F -7.6 °F 52% 30.37 in 10.0 mi North 9.2 mph - N/A   Overcast
1:15 AM 6.8 °F -5.9 °F -6.9 °F 54% 30.37 in 10.0 mi North 8.1 mph - N/A   Overcast
1:35 AM 6.8 °F -5.9 °F -6.7 °F 54% 30.37 in 10.0 mi North 8.1 mph - N/A   Overcast
1:55 AM 6.4 °F -6.3 °F -6.7 °F 55% 30.37 in 10.0 mi North 8.1 mph - N/A   Overcast
2:15 AM 5.9 °F -5.8 °F -6.9 °F 56% 30.37 in 10.0 mi North 6.9 mph - N/A   Overcast
2:35 AM 5.0 °F -6.9 °F -6.9 °F 58% 30.37 in 10.0 mi North 6.9 mph - N/A   Overcast
2:55 AM 4.8 °F -5.8 °F -7.6 °F 57% 30.38 in 10.0 mi North 5.8 mph - N/A   Mostly Cloudy
3:15 AM 3.9 °F -9.4 °F -8.3 °F 57% 30.39 in 10.0 mi North 8.1 mph - N/A   Scattered Clouds
3:35 AM 2.7 °F -10.9 °F -8.9 °F 59% 30.40 in 10.0 mi North 8.1 mph - N/A   Scattered Clouds
3:55 AM 1.9 °F -10.6 °F -9.0 °F 60% 30.40 in 10.0 mi NNW 6.9 mph - N/A   Scattered Clouds
4:15 AM 1.2 °F -13.7 °F -9.4 °F 61% 30.39 in 10.0 mi North 9.2 mph - N/A   Clear
4:35 AM 0.3 °F -12.6 °F -9.8 °F 63% 30.40 in 10.0 mi North 6.9 mph - N/A   Clear
4:55 AM -0.6 °F -10.6 °F -9.9 °F 65% 30.40 in 10.0 mi North 4.6 mph - N/A   Clear
5:15 AM -0.9 °F -12.7 °F -9.8 °F 66% 30.40 in 10.0 mi North 5.8 mph - N/A   Clear
5:35 AM -2.6 °F -10.8 °F -10.7 °F 68% 30.41 in 10.0 mi North 3.5 mph - N/A   Clear
5:55 AM -3.1 °F -13.5 °F -10.3 °F 71% 30.42 in 10.0 mi North 4.6 mph - N/A   Clear
6:15 AM -2.2 °F -15.6 °F -10.3 °F 68% 30.42 in 10.0 mi North 6.9 mph - N/A   Clear
6:35 AM -3.1 °F -16.7 °F -10.7 °F 70% 30.42 in 10.0 mi North 6.9 mph - N/A   Clear
6:55 AM -3.1 °F -16.7 °F -10.5 °F 71% 30.43 in 10.0 mi North 6.9 mph - N/A   Clear
7:15 AM -3.1 °F -16.7 °F -10.7 °F 70% 30.43 in 10.0 mi North 6.9 mph - N/A   Clear
7:35 AM -4.0 °F -14.6 °F -11.2 °F 71% 30.44 in 10.0 mi North 4.6 mph - N/A   Clear
7:55 AM -3.5 °F -15.7 °F -10.3 °F 73% 30.44 in 10.0 mi North 5.8 mph - N/A   Clear
8:15 AM -2.9 °F -13.3 °F -10.1 °F 71% 30.45 in 10.0 mi North 4.6 mph - N/A   Clear
8:35 AM -1.7 °F -14.9 °F -9.0 °F 71% 30.46 in 10.0 mi North 6.9 mph - N/A   Clear
8:55 AM -0.4 °F -15.7 °F -8.9 °F 67% 30.46 in 10.0 mi North 9.2 mph - N/A   Clear
9:15 AM 1.0 °F -14.9 °F -8.7 °F 64% 30.47 in 10.0 mi North 10.4 mph - N/A   Scattered Clouds
9:35 AM 1.6 °F -13.3 °F -8.9 °F 62% 30.47 in 10.0 mi NNW 9.2 mph - N/A   Scattered Clouds
9:55 AM 2.8 °F -13.5 °F -8.9 °F 58% 30.47 in 10.0 mi North 11.5 mph - N/A   Scattered Clouds
10:15 AM 4.3 °F -12.5 °F -8.3 °F 56% 30.47 in 10.0 mi North 12.7 mph 17.3 mph N/A   Scattered Clouds
10:35 AM 5.9 °F -8.9 °F -8.0 °F 53% 30.47 in 10.0 mi North 10.4 mph 17.3 mph N/A   Clear
10:55 AM 6.6 °F -8.8 °F -8.5 °F 50% 30.49 in 10.0 mi North 11.5 mph 17.3 mph N/A   Clear
11:15 AM 7.7 °F -6.6 °F -8.0 °F 49% 30.49 in 10.0 mi North 10.4 mph - N/A   Clear
11:35 AM 8.6 °F -5.5 °F -8.0 °F 47% 30.48 in 10.0 mi North 10.4 mph - N/A   Clear
11:55 AM 9.5 °F -4.4 °F -8.0 °F 45% 30.48 in 10.0 mi North 10.4 mph - N/A   Clear
12:15 PM 10.0 °F -2.9 °F -9.0 °F 42% 30.48 in 10.0 mi North 9.2 mph - N/A   Clear
12:35 PM 11.1 °F -2.4 °F -9.0 °F 40% 30.48 in 10.0 mi North 10.4 mph - N/A   Scattered Clouds
12:55 PM 11.7 °F -0.9 °F -9.2 °F 39% 30.47 in 10.0 mi NNW 9.2 mph 16.1 mph N/A   Mostly Cloudy
1:15 PM 12.7 °F -1.1 °F -9.4 °F 37% 30.46 in 10.0 mi North 11.5 mph - N/A   Scattered Clouds
1:35 PM 12.7 °F -0.4 °F -10.5 °F 35% 30.45 in 10.0 mi North 10.4 mph 18.4 mph N/A   Clear
1:55 PM 12.9 °F 0.7 °F -10.5 °F 35% 30.44 in 10.0 mi North 9.2 mph - N/A   Clear
2:15 PM 13.5 °F -0.2 °F -10.3 °F 34% 30.44 in 10.0 mi North 11.5 mph - N/A   Scattered Clouds
2:35 PM 12.7 °F 2.4 °F -9.9 °F 36% 30.44 in 10.0 mi North 6.9 mph - N/A   Clear
2:55 PM 14.2 °F 0.7 °F -9.0 °F 35% 30.43 in 10.0 mi NNE 11.5 mph - N/A   Clear
3:15 PM 13.8 °F 1.0 °F -9.4 °F 35% 30.43 in 10.0 mi North 10.4 mph - N/A   Clear
3:35 PM 13.8 °F 1.8 °F -9.2 °F 35% 30.44 in 10.0 mi North 9.2 mph 18.4 mph N/A   Clear
3:55 PM 13.6 °F 0.7 °F -9.4 °F 35% 30.45 in 10.0 mi NNE 10.4 mph - N/A   Clear
4:15 PM 13.1 °F 0.1 °F -9.4 °F 36% 30.46 in 10.0 mi NNE 10.4 mph - N/A   Clear
4:35 PM 12.6 °F 1.1 °F -9.2 °F 37% 30.46 in 10.0 mi NNE 8.1 mph - N/A   Clear
4:55 PM 11.3 °F -0.4 °F -9.4 °F 39% 30.47 in 10.0 mi NE 8.1 mph - N/A   Clear
5:15 PM 9.5 °F -1.5 °F -9.8 °F 42% 30.47 in 10.0 mi NNE 6.9 mph - N/A   Clear
5:35 PM 7.5 °F -2.6 °F -9.8 °F 45% 30.48 in 10.0 mi NNE 5.8 mph - N/A   Clear
5:55 PM 5.5 °F -5.0 °F -10.3 °F 48% 30.50 in 10.0 mi NE 5.8 mph - N/A   Clear
6:15 PM 5.2 °F -5.4 °F -10.8 °F 48% 30.51 in 10.0 mi NNE 5.8 mph - N/A   Clear
6:35 PM 3.0 °F -9.3 °F -11.2 °F 52% 30.51 in 10.0 mi NNE 6.9 mph - N/A   Clear
6:55 PM 1.6 °F -11.0 °F -11.9 °F 53% 30.51 in 10.0 mi NNE 6.9 mph - N/A   Clear
7:15 PM 1.9 °F -7.6 °F -10.8 °F 55% 30.52 in 10.0 mi NNE 4.6 mph - N/A   Clear
7:35 PM 1.2 °F -11.5 °F -11.4 °F 56% 30.53 in 10.0 mi NNE 6.9 mph - N/A   Clear
7:55 PM 0.7 °F -12.1 °F -10.8 °F 58% 30.53 in 10.0 mi NNE 6.9 mph - N/A   Clear
8:15 PM 0.1 °F -12.8 °F -10.7 °F 60% 30.54 in 10.0 mi NE 6.9 mph - N/A   Clear
8:35 PM -0.0 °F -11.6 °F -10.3 °F 62% 30.54 in 10.0 mi NE 5.8 mph - N/A   Clear
8:55 PM -0.2 °F -11.8 °F -9.9 °F 64% 30.54 in 10.0 mi NE 5.8 mph - N/A   Clear
9:15 PM 0.1 °F -12.8 °F -10.3 °F 61% 30.54 in 10.0 mi NNE 6.9 mph - N/A   Clear
9:35 PM -1.7 °F -11.8 °F -10.7 °F 66% 30.55 in 10.0 mi NE 4.6 mph - N/A   Clear
9:55 PM -1.7 °F -11.8 °F -10.5 °F 66% 30.55 in 10.0 mi NNE 4.6 mph - N/A   Clear
10:15 PM -2.9 °F -13.3 °F -11.6 °F 67% 30.55 in 10.0 mi NNE 4.6 mph - N/A   Clear
10:35 PM -2.4 °F -12.7 °F -10.8 °F 67% 30.55 in 10.0 mi NNE 4.6 mph - N/A   Clear
10:55 PM -2.7 °F -16.2 °F -11.2 °F 67% 30.56 in 10.0 mi NNE 6.9 mph - N/A   Clear
11:15 PM -2.6 °F -12.9 °F -10.7 °F 68% 30.57 in 10.0 mi NNE 4.6 mph - N/A   Clear
11:35 PM -1.7 °F -11.8 °F -9.8 °F 68% 30.57 in 10.0 mi North 4.6 mph - N/A   Clear
11:55 PM -2.6 °F - -10.5 °F 69% 30.58 in 10.0 mi Calm Calm - N/A   Clear